Location: Rounton
(54.4000°N, 1.3500°W)
Time: 13:45:25
(UTC+00:00)

Transit 4A - Pass Details

Date: 07 December 2021
Orbit: 864 x 981 km, 66.8° (Epoch: 18 January)

Event Time Altitude Azimuth Distance (km) Brightness Sun altitude
Rises 03:35:06 0° 317° (NW) 3,606 - -38.6°
Reaches altitude 10° 03:37:41 10° 313° (NW) 2,675 - -38.3°
Maximum altitude 03:43:39 49° 241° (WSW) 1,229 - -37.4°
Drops below altitude 10° 03:49:44 10° 168° (SSE) 2,717 - -36.6°
Exits shadow 03:51:41 - 164° (SSE) 3,415 10.9 -36.3°
Sets 03:52:23 0° 163° (SSE) 3,668 11.1 -36.2°
